2024/01/26 00:00:00,15.8, 1.1
2024/01/26 00:10:00,15.7, 1.6
2024/01/26 00:20:00,15.7, 1.1
2024/01/26 00:30:00,15.7, 1.2
2024/01/26 00:40:00,15.6, 1.3
2024/01/26 00:50:00,15.5, 1.3
2024/01/26 01:00:00,15.4, 1.2
2024/01/26 01:10:00,15.4, 2.2
2024/01/26 01:20:00,15.4, 3.1
2024/01/26 01:30:00,15.3, 3.5
2024/01/26 01:40:00,15.3, 3.2
2024/01/26 01:50:00,15.3, 3.2
2024/01/26 02:00:00,15.4, 3.2
2024/01/26 02:10:00,15.3, 3.1
2024/01/26 02:20:00,15.3, 2.9
2024/01/26 02:30:00,15.3, 3.0
2024/01/26 02:40:00,15.2, 2.9
2024/01/26 02:50:00,15.1, 3.1
2024/01/26 03:00:00,15.0, 2.8
2024/01/26 03:10:00,15.0, 2.8
2024/01/26 03:20:00,15.0, 3.0
2024/01/26 03:30:00,15.0, 2.8
2024/01/26 03:40:00,14.9, 3.4
2024/01/26 03:50:00,14.7, 3.2
2024/01/26 04:00:00,14.6, 3.1
2024/01/26 04:10:00,14.6, 3.0
2024/01/26 04:20:00,14.5, 3.1
2024/01/26 04:30:00,14.6, 3.3
2024/01/26 04:40:00,14.6, 2.9
2024/01/26 04:50:00,14.5, 3.0
2024/01/26 05:00:00,14.3, 2.8
2024/01/26 05:10:00,14.1, 3.3
2024/01/26 05:20:00,14.0, 3.4
2024/01/26 05:30:00,14.0, 3.4
2024/01/26 05:40:00,14.0, 3.5
2024/01/26 05:50:00,13.8, 3.3
2024/01/26 06:00:00,13.7, 3.5
2024/01/26 06:10:00,13.8, 3.4
2024/01/26 06:20:00,13.8, 3.5
2024/01/26 06:30:00,13.7, 3.2
2024/01/26 06:40:00,13.8, 3.3
2024/01/26 06:50:00,13.8, 3.5
2024/01/26 07:00:00,13.9, 3.6
2024/01/26 07:10:00,14.1, 3.5
2024/01/26 07:20:00,14.0, 3.5
2024/01/26 07:30:00,14.0, 3.4
2024/01/26 07:40:00,13.9, 3.6
2024/01/26 07:50:00,13.7, 3.8
2024/01/26 08:00:00,13.6, 3.8
2024/01/26 08:10:00,13.6, 3.8
2024/01/26 08:20:00,13.5, 3.7
2024/01/26 08:30:00,13.5, 3.8
2024/01/26 08:40:00,13.5, 4.0
2024/01/26 08:50:00,13.5, 4.2
2024/01/26 09:00:00,13.6, 4.5
2024/01/26 09:10:00,13.3, 4.4
2024/01/26 09:20:00,13.3, 4.6
2024/01/26 09:30:00,13.1, 4.8
2024/01/26 09:40:00,13.1, 4.8
2024/01/26 09:50:00,13.0, 5.0
2024/01/26 10:00:00,13.0, 5.0
2024/01/26 10:10:00,12.8, 5.1
2024/01/26 10:20:00,12.7, 4.8
2024/01/26 10:30:00,12.5, 4.7
2024/01/26 10:40:00,12.2, 5.0
2024/01/26 10:50:00,12.1, 5.1
2024/01/26 11:00:00,12.0, 5.1
2024/01/26 11:10:00,12.0, 5.3
2024/01/26 11:20:00,11.8, 5.0
2024/01/26 11:30:00,11.6, 5.0
2024/01/26 11:40:00,11.6, 4.8
2024/01/26 11:50:00,11.5, 4.6
2024/01/26 12:00:00,11.4, 4.2
2024/01/26 12:10:00,11.1, 3.7
2024/01/26 12:20:00,11.0, 3.5
2024/01/26 12:30:00,11.1, 3.6
2024/01/26 12:40:00,11.1, 3.2
2024/01/26 12:50:00,11.2, 3.5
2024/01/26 13:00:00,11.0, 3.5
2024/01/26 13:10:00,10.9, 3.4
2024/01/26 13:20:00,10.7, 3.5
2024/01/26 13:30:00,10.4, 3.2
2024/01/26 13:40:00,10.4, 3.7
2024/01/26 13:50:00,10.5, 4.9
2024/01/26 14:00:00,10.4, 5.0
2024/01/26 14:10:00,10.4, 5.3
2024/01/26 14:20:00,10.3, 5.6
2024/01/26 14:30:00,10.5, 6.4
2024/01/26 14:40:00,10.5, 6.9
2024/01/26 14:50:00,10.5, 6.3
2024/01/26 15:00:00, 9.6, 5.0
2024/01/26 15:10:00, 9.7, 5.9
2024/01/26 15:20:00, 9.4, 4.5
2024/01/26 15:30:00, 9.4, 5.7
2024/01/26 15:40:00, 9.5, 6.0
2024/01/26 15:50:00, 9.3, 6.0
2024/01/26 16:00:00, 9.1, 5.1
2024/01/26 16:10:00, 9.0, 5.1
2024/01/26 16:20:00, 8.9, 4.6
2024/01/26 16:30:00, 8.8, 4.4
2024/01/26 16:40:00, 8.6, 3.8
2024/01/26 16:50:00, 8.6, 3.5
2024/01/26 17:00:00, 8.5, 3.2
2024/01/26 17:10:00, 8.4, 3.0
2024/01/26 17:20:00, 8.2, 3.0
2024/01/26 17:30:00, 8.2, 2.8
2024/01/26 17:40:00, 8.1, 2.7
2024/01/26 17:50:00, 8.0, 2.6
2024/01/26 18:00:00, 8.0, 2.7
2024/01/26 18:10:00, 8.0, 2.8
2024/01/26 18:20:00, 8.0, 2.4
2024/01/26 18:30:00, 8.0, 2.4
2024/01/26 18:40:00, 7.9, 2.4
2024/01/26 18:50:00, 8.0, 2.4
2024/01/26 19:00:00, 8.0, 2.5
2024/01/26 19:10:00, 8.1, 2.4
2024/01/26 19:20:00, 8.1, 2.0
2024/01/26 19:30:00, 8.2, 1.9
2024/01/26 19:40:00, 8.0, 1.7
2024/01/26 19:50:00, 7.9, 1.6
2024/01/26 20:00:00, 7.9, 1.5
2024/01/26 20:10:00, 7.9, 1.7
2024/01/26 20:20:00, 7.9, 1.4
2024/01/26 20:30:00, 7.8, 1.4
2024/01/26 20:40:00, 7.9, 2.0
2024/01/26 20:50:00, 7.9, 1.7
2024/01/26 21:00:00, 8.0, 1.7
2024/01/26 21:10:00, 7.9, 1.2
2024/01/26 21:20:00, 7.8, 1.5
2024/01/26 21:30:00, 7.7, 1.7
2024/01/26 21:40:00, 7.6, 1.6
2024/01/26 21:50:00, 7.6, 1.7
2024/01/26 22:00:00, 7.6, 1.7
2024/01/26 22:10:00, 7.8, 1.8
2024/01/26 22:20:00, 8.0, 1.8
2024/01/26 22:30:00, 8.1, 2.0
2024/01/26 22:40:00, 7.8, 1.8
2024/01/26 22:50:00, 7.5, 1.8
2024/01/26 23:00:00, 7.5, 1.7
2024/01/26 23:10:00, 7.6, 1.9
2024/01/26 23:20:00, 7.6, 2.1
2024/01/26 23:30:00, 7.6, 1.9
2024/01/26 23:40:00, 7.5, 1.8
2024/01/26 23:50:00, 7.4, 1.8
